TimeMDT,TemperatureF,Dew PointF,Humidity,Sea Level PressureIn,VisibilityMPH,Wind Direction,Wind SpeedMPH,Gust SpeedMPH,PrecipitationIn,Events,Conditions,WindDirDegrees,DateUTC
12:53 AM,39.9,28.9,65,29.79,10.0,Calm,Calm,-,N/A,,Clear,0,2013-05-23 06:53:00
1:53 AM,39.0,28.9,67,29.79,10.0,SSE,4.6,-,N/A,,Clear,160,2013-05-23 07:53:00
2:53 AM,36.0,28.0,73,29.81,10.0,SSW,4.6,-,N/A,,Clear,210,2013-05-23 08:53:00
3:53 AM,37.0,30.9,79,29.81,10.0,SE,4.6,-,N/A,,Clear,140,2013-05-23 09:53:00
4:53 AM,35.1,30.9,85,29.82,10.0,South,5.8,-,N/A,,Clear,190,2013-05-23 10:53:00
5:53 AM,30.9,28.9,92,29.86,10.0,Calm,Calm,-,N/A,,Clear,0,2013-05-23 11:53:00
6:53 AM,35.1,32.0,89,29.86,10.0,SSE,4.6,-,N/A,,Clear,160,2013-05-23 12:53:00
7:53 AM,41.0,34.0,76,29.81,10.0,South,21.9,-,N/A,,Clear,180,2013-05-23 13:53:00
8:53 AM,43.0,33.1,68,29.84,10.0,South,17.3,25.3,N/A,,Clear,180,2013-05-23 14:53:00
9:53 AM,46.9,32.0,56,29.82,10.0,South,17.3,23.0,N/A,,Clear,180,2013-05-23 15:53:00
10:53 AM,52.0,28.9,41,29.80,10.0,South,13.8,-,N/A,,Clear,180,2013-05-23 16:53:00
11:53 AM,55.9,25.0,30,29.77,10.0,South,12.7,20.7,N/A,,Clear,180,2013-05-23 17:53:00
12:53 PM,59.0,19.9,22,29.73,10.0,South,11.5,23.0,N/A,,Clear,170,2013-05-23 18:53:00
1:53 PM,59.0,21.0,23,29.74,10.0,SSE,6.9,20.7,N/A,,Mostly Cloudy,160,2013-05-23 19:53:00
2:53 PM,62.1,16.0,17,29.72,10.0,SSE,17.3,31.1,N/A,,Scattered Clouds,160,2013-05-23 20:53:00
3:53 PM,64.0,8.1,11,29.68,10.0,South,17.3,33.4,N/A,,Partly Cloudy,170,2013-05-23 21:53:00
4:53 PM,63.0,8.1,11,29.69,10.0,South,28.8,43.7,N/A,,Clear,170,2013-05-23 22:53:00
5:53 PM,64.0,8.1,11,29.70,10.0,South,23.0,35.7,N/A,,Scattered Clouds,170,2013-05-23 23:53:00
6:53 PM,61.0,9.0,13,29.72,10.0,WSW,8.1,32.2,N/A,,Scattered Clouds,240,2013-05-24 00:53:00
7:53 PM,59.0,10.9,15,29.70,10.0,SSE,15.0,31.1,N/A,,Scattered Clouds,160,2013-05-24 01:53:00
8:53 PM,50.0,30.9,48,29.77,10.0,South,8.1,-,N/A,,Clear,170,2013-05-24 02:53:00
9:53 PM,45.0,35.1,68,29.80,10.0,Calm,Calm,-,N/A,,Clear,0,2013-05-24 03:53:00
10:53 PM,41.0,35.1,79,29.82,10.0,Calm,Calm,-,N/A,,Clear,0,2013-05-24 04:53:00
11:53 PM,37.9,35.1,89,29.82,10.0,Calm,Calm,-,N/A,,Clear,0,2013-05-24 05:53:00